Location: Borz?cin
(51.1714°N, 19.6030°E)
Time: 21:37:57
(UTC+00:00)

ARIANE 5 R/B - Pass Details

Date: 19 May 2025
Orbit: 614 x 648 km, 98.0° (Epoch: 12 June)

Event Time Altitude Azimuth Distance (km) Brightness Sun altitude
Exits shadow 21:23:53 33° 153° (SSE) 1,036 3.1 -17.0°
Maximum altitude 21:25:45 76° 73° (ENE) 644 2.6 -17.1°
Drops below altitude 10° 21:30:06 10° 348° (NNW) 2,007 6.5 -17.3°
Sets 21:32:19 0° 347° (NNW) 2,923 7.8 -17.4°
